This is the latest recevied weather packets stored in our database for station/object PP5CI-13. If no packets are shown the sender has not sent any weather packets the latest 10 day(s).
| Time | Temp. | Humidity | Pressure | Rain* | Wind** | Luminosity | Snow |
|---|---|---|---|---|---|---|---|
| 1777739124 | 25° C | 78% | 1014 hPa | 0 mm | - | - | - |
| 1777738521 | 25° C | 77% | 1014.2 hPa | 0 mm | - | - | - |
| 1777737921 | 25° C | 78% | 1014.2 hPa | 0 mm | - | - | - |
| 1777737324 | 24.44° C | 79% | 1014.2 hPa | 0 mm | - | - | - |
| 1777736721 | 24.44° C | 83% | 1014.2 hPa | 0 mm | - | - | - |
| 1777736121 | 24.44° C | 82% | 1015.2 hPa | 0 mm | - | - | - |
| 1777735524 | 24.44° C | 83% | 1015.7 hPa | 0 mm | - | - | - |
| 1777734921 | 24.44° C | 83% | 1016.2 hPa | 0 mm | - | - | - |
| 1777734321 | 24.44° C | 80% | 1016.2 hPa | 0 mm | - | - | - |
| 1777733723 | 24.44° C | 81% | 1016.2 hPa | 0 mm | - | - | - |
| 1777733121 | 24.44° C | 79% | 1016.2 hPa | 0 mm | - | - | - |
| 1777732521 | 23.89° C | 83% | 1016.5 hPa | 0 mm | - | - | - |
| 1777731924 | 23.33° C | 91% | 1017.2 hPa | 0 mm | - | - | - |
| 1777731321 | 23.33° C | 90% | 1017.2 hPa | 0 mm | - | - | - |
| 1777730721 | 22.78° C | 91% | 1017.2 hPa | 0 mm | - | - | - |
| 1777730124 | 22.78° C | 92% | 1017.2 hPa | 0 mm | - | - | - |
| 1777729522 | 22.22° C | 95% | 1017.2 hPa | 0 mm | - | - | - |
| 1777728921 | 22.22° C | 97% | 1018.2 hPa | 0 mm | - | - | - |
| 1777728324 | 22.22° C | 98% | 1017.2 hPa | 0 mm | - | - | - |
| 1777727121 | 21.67° C | 99% | 1018.2 hPa | 0 mm | - | - | - |
| 1777726524 | 21.67° C | 99% | 1017.3 hPa | 0 mm | - | - | - |
| 1777725921 | 21.67° C | 99% | 1017.2 hPa | 0 mm | - | - | - |
| 1777725322 | 21.67° C | 99% | 1017.2 hPa | 0 mm | - | - | - |
| 1777724724 | 21.67° C | 99% | 1016.3 hPa | 0 mm | - | - | - |
| 1777724122 | 21.67° C | 99% | 1016.2 hPa | 0 mm | - | - | - |
* Rain latest hour (hover to see other rain measurements)
** Current wind speed in m/s (hover to see current wind gust speed)